LRSB Weather Reports


time (UTC)temp
F
wind
direction
speed
knots
gust
knots
rain 1hr
in
rain 24hr
in
rain mn
in
humidity
%
barometer
mb
20260504014811 41 1.7 0.0 0.00 0.00 0.00 76 1019.0
20260504013316 41 1.7 0.0 0.00 0.00 0.00 76 1019.0
20260504011926 41 150 2.6 0.0 0.00 0.00 0.00 76 1019.0
20260504010311 41 150 2.6 0.0 0.00 0.00 0.00 76 1019.0
20260504004927 45 350 2.6 0.0 0.00 0.00 0.00 66 1019.0
20260504003311 45 350 2.6 0.0 0.00 0.00 0.00 66 1019.0
20260504001811 43 0.9 0.0 0.00 0.00 0.00 71 1018.0
20260504000311 43 0.9 0.0 0.00 0.00 0.00 71 1018.0
20260503234850 46 0.9 0.0 0.00 0.00 0.00 62 1019.0
20260503233311 46 0.9 0.0 0.00 0.00 0.00 62 1019.0
20260503231815 48 0.9 0.0 0.00 0.00 0.00 62 1019.0
20260503230323 48 0.9 0.0 0.00 0.00 0.00 62 1019.0
20260503224811 48 260 5.2 0.0 0.00 0.00 0.00 58 1019.0
20260503223323 48 260 5.2 0.0 0.00 0.00 0.00 58 1019.0
20260503221828 50 160 2.6 0.0 0.00 0.00 0.00 54 1019.0
20260503220353 50 160 2.6 0.0 0.00 0.00 0.00 54 1019.0
20260503214818 50 120 2.6 0.0 0.00 0.00 0.00 54 1019.0
20260503213311 50 120 2.6 0.0 0.00 0.00 0.00 54 1019.0
20260503211811 50 70 1.7 0.0 0.00 0.00 0.00 50 1019.0
20260503210311 50 70 1.7 0.0 0.00 0.00 0.00 50 1019.0
20260503204818 50 100 2.6 0.0 0.00 0.00 0.00 47 1019.0
20260503203426 50 100 2.6 0.0 0.00 0.00 0.00 47 1019.0
20260503201811 48 1.7 0.0 0.00 0.00 0.00 58 1019.0
20260503200320 48 1.7 0.0 0.00 0.00 0.00 58 1019.0
20260503194836 48 250 7.0 0.0 0.00 0.00 0.00 50 1019.0
20260503193427 48 250 7.0 0.0 0.00 0.00 0.00 50 1019.0
20260503191811 48 250 7.0 0.0 0.00 0.00 0.00 54 1019.0
20260503190311 48 250 7.0 0.0 0.00 0.00 0.00 54 1019.0
20260503184926 48 250 7.0 0.0 0.00 0.00 0.00 54 1019.0
20260503183310 48 250 7.0 0.0 0.00 0.00 0.00 54 1019.0
20260503181811 48 260 6.1 0.0 0.00 0.00 0.00 58 1019.0
20260503180310 48 260 6.1 0.0 0.00 0.00 0.00 58 1019.0
20260503174831 48 240 6.1 0.0 0.00 0.00 0.00 58 1019.0
20260503173335 50 240 6.1 0.0 0.00 0.00 0.00 54 1019.0
20260503171811 57 340 4.3 0.0 0.00 0.00 0.00 31 1019.0
20260503170311 57 340 4.3 0.0 0.00 0.00 0.00 31 1019.0
20260503150311 61 1.7 0.0 0.00 0.00 0.00 20 1019.0
20260503130311 61 10 4.3 0.0 0.00 0.00 0.00 22 1020.0
20260503110332 57 330 6.1 0.0 0.00 0.00 0.00 33 1021.0
20260503090332 54 30 5.2 0.0 0.00 0.00 0.00 38 1023.0
20260503080321 52 90 5.2 0.0 0.00 0.00 0.00 41 1023.0
20260503071813 50 110 4.3 0.0 0.00 0.00 0.00 54 1023.0
20260503070312 50 110 4.3 0.0 0.00 0.00 0.00 54 1023.0
20260503060311 45 110 4.3 0.0 0.00 0.00 0.00 71 1023.0
20260503054811 43 120 4.3 0.0 0.00 0.00 0.00 71 1023.0
20260503053311 43 120 4.3 0.0 0.00 0.00 0.00 71 1023.0
20260503051811 41 1.7 0.0 0.00 0.00 0.00 76 1023.0
20260503050311 41 1.7 0.0 0.00 0.00 0.00 76 1023.0
20260503044811 39 1.7 0.0 0.00 0.00 0.00 81 1022.0
20260503043312 39 1.7 0.0 0.00 0.00 0.00 81 1022.0
20260503041811 36 0.9 0.0 0.00 0.00 0.00 87 1022.0
20260503040334 36 0.9 0.0 0.00 0.00 0.00 87 1022.0
20260503034813 30 240 2.6 0.0 0.00 0.00 0.00 93 1022.0
20260503033311 30 240 2.6 0.0 0.00 0.00 0.00 93 1022.0
20260503031811 36 0.9 0.0 0.00 0.00 0.00 87 1022.0
20260503030311 36 0.9 0.0 0.00 0.00 0.00 87 1022.0
20260503024826 36 0.9 0.0 0.00 0.00 0.00 81 1022.0
20260503023311 36 0.9 0.0 0.00 0.00 0.00 81 1022.0
20260503021811 36 120 2.6 0.0 0.00 0.00 0.00 87 1021.0
20260503020311 36 120 2.6 0.0 0.00 0.00 0.00 87 1021.0